Date,TemperatureHighF,TemperatureAvgF,TemperatureLowF,DewpointHighF,DewpointAvgF,DewpointLowF,HumidityHigh,HumidityAvg,HumidityLow,PressureMaxIn,PressureMinIn,WindSpeedMaxMPH,WindSpeedAvgMPH,GustSpeedMaxMPH,PrecipitationSumIn
2014-3-1,63,56,51,51,46,41,89,72,53,29.79,29.72,13,4,13,0.11
2014-3-2,67,57,49,51,47,43,85,71,44,30.06,29.89,8,3,8,0.00
2014-3-3,74,63,52,50,46,41,82,57,32,30.05,29.93,4,2,4,0.00
2014-3-4,76,69,57,51,48,44,68,48,36,29.96,29.85,14,3,14,0.00
2014-3-12,78,67,59,30,25,22,24,20,17,30.05,29.91,25,10,25,0.00
2014-3-13,80,67,59,31,26,21,25,21,16,29.92,29.80,11,3,11,0.00
2014-3-14,84,70,56,36,28,22,26,22,15,30.00,29.88,16,3,16,0.00
2014-3-15,88,76,63,36,29,22,23,18,15,30.19,30.00,21,6,21,0.00
2014-3-16,91,78,66,36,29,23,20,17,14,30.24,30.02,7,2,7,0.00
2014-3-17,83,73,64,47,32,23,45,24,15,30.03,29.62,21,7,21,0.00
2014-3-18,80,72,62,37,26,22,30,18,16,29.88,29.69,27,10,27,0.01
2014-3-19,66,64,63,23,23,22,21,20,19,30.01,29.99,3,2,3,0.00
2014-3-20,83,70,58,35,27,21,28,21,15,30.00,29.81,12,3,12,0.00
2014-3-21,79,68,58,47,34,25,53,30,16,29.86,29.78,16,6,16,0.00
2014-3-22,76,66,57,46,41,34,48,40,32,29.95,29.81,17,4,17,0.00
2014-3-23,86,71,58,45,39,33,49,32,18,30.00,29.90,5,2,5,0.00
2014-3-24,88,73,62,39,33,25,37,24,15,29.99,29.86,8,2,8,0.00
2014-3-25,84,69,59,52,38,22,70,35,19,29.89,29.71,19,7,19,0.00
2014-3-26,64,59,56,47,43,34,70,55,32,29.84,29.73,27,16,27,0.05
2014-3-27,69,61,53,46,42,38,73,51,33,29.92,29.83,21,9,21,0.00